Wind_Speed
41 42 43 44 45 45 45 45 44 44 44 45 45 46 46 46 46 45 45 45 44 43 43 43 43 43 43 43 43 44 44 44 44 44 44 44 45 45 45 45 45 46 46 47 47 47 48 48 49 50 50 51 51 52 53 53 54 54 55 55 56 57 58 59 59 60 61 61 62 61 61 60 60 59 59 58 57 56 55 54 56 57 55 54 56 57 57 57
40 41 43 44 45 46 47 47 46 46 46 46 46 46 47 47 46 46 46 46 46 45 44 43 43 43 43 42 43 43 43 43 44 44 44 44 44 45 45 46 46 47 48 48 48 49 50 50 51 51 51 52 52 52 53 53 53 54 55 55 56 57 57 58 59 60 60 60 59 59 58 58 58 58 57 56 55 54 53 54 56 56 55 55 56 57 57 58
37 40 42 44 45 47 48 48 48 48 47 47 48 48 48 48 48 47 47 47 47 47 46 45 45 44 44 43 43 43 43 43 44 44 44 44 45 45 46 47 48 49 49 50 50 50 51 51 51 51 52 52 52 53 53 54 54 55 55 55 56 56 57 58 58 58 58 57 57 57 57 57 57 57 56 54 53 53 53 54 56 56 56 56 56 58 58 59
34 36 39 41 43 45 47 48 49 50 50 50 50 50 50 50 49 49 48 47 47 47 47 47 47 46 45 45 44 44 44 44 44 45 45 45 46 47 47 48 49 50 50 50 51 51 51 51 52 52 52 53 53 53 54 54 54 55 55 55 55 56 56 57 57 56 56 56 56 56 56 56 56 55 54 53 52 52 53 55 56 57 57 57 58 59 59 61
31 33 35 37 40 43 46 48 50 52 52 53 52 52 52 52 51 50 49 49 48 48 47 47 47 47 47 46 46 46 46 45 46 46 46 47 47 48 48 49 50 50 50 50 51 51 51 52 52 52 52 52 53 53 53 53 53 53 54 54 55 55 55 55 55 55 55 55 56 56 55 55 54 53 53 51 52 52 54 55 57 58 59 58 59 60 61 62
28 30 32 34 37 39 43 46 49 52 53 54 55 54 54 53 53 52 51 51 50 49 48 48 48 48 47 47 47 47 46 46 47 47 47 48 48 48 49 49 49 49 50 50 50 50 51 51 51 51 51 51 51 51 51 52 52 52 53 53 54 54 54 54 54 54 55 55 55 55 54 53 52 52 52 51 51 53 54 56 57 59 60 60 60 61 62 63
25 26 28 30 32 35 38 42 45 49 52 54 56 56 56 55 55 54 53 52 52 50 50 49 49 49 49 49 48 48 47 47 47 48 48 48 48 48 49 49 49 49 49 50 50 50 50 50 50 50 49 50 50 50 50 50 51 51 52 53 53 53 52 53 54 54 55 55 54 54 53 52 51 51 52 51 51 53 55 57 58 59 60 61 62 63 64 64
22 23 25 27 29 32 35 38 41 44 47 51 54 56 57 57 56 55 54 54 53 51 50 50 49 49 49 49 49 49 48 47 47 47 47 47 48 48 48 48 49 49 49 49 49 49 49 49 49 49 49 49 49 49 50 50 50 51 51 51 51 51 52 54 54 54 54 54 53 53 52 52 51 50 52 52 52 54 57 59 60 60 61 62 63 64 65 65
20 21 23 25 28 30 33 35 38 40 42 45 48 51 54 56 57 57 56 54 53 51 50 49 49 48 48 48 49 48 48 47 47 47 47 47 47 48 48 48 49 49 49 49 49 49 49 49 49 49 48 48 48 48 49 49 49 50 50 50 51 51 53 53 54 53 53 52 52 52 53 53 52 50 52 53 53 55 58 59 60 61 62 63 63 65 65 65
18 19 20 23 25 28 30 33 35 38 40 42 43 45 48 51 54 56 56 56 54 52 50 49 48 47 47 48 48 48 47 47 47 47 47 47 48 48 48 48 48 49 48 48 48 48 48 48 48 48 47 47 47 47 48 48 48 48 49 50 51 52 52 53 52 52 52 51 51 53 54 54 53 51 52 53 55 57 59 59 60 61 62 63 64 65 66 66
16 17 17 19 21 23 25 27 30 34 36 39 40 40 42 44 47 51 53 54 54 53 51 50 48 47 47 47 47 47 47 47 47 47 47 47 47 47 47 48 48 48 47 47 47 47 47 47 47 46 46 46 46 45 46 46 47 48 50 51 52 52 51 51 51 50 50 51 52 53 56 56 54 53 52 54 56 59 60 60 60 62 63 64 65 66 67 68
14 14 14 15 16 18 20 22 24 27 30 33 35 37 37 38 40 43 47 49 51 52 51 50 49 48 47 47 47 47 48 47 47 47 47 47 46 47 47 47 47 47 46 46 46 46 46 46 45 45 44 44 44 44 45 46 48 49 51 51 51 50 49 48 49 50 51 51 52 53 56 58 56 55 54 54 57 60 61 61 61 63 64 65 66 68 69 70
12 13 12 12 12 14 15 17 19 22 24 26 28 30 33 35 37 38 41 43 45 47 49 49 49 48 47 47 47 47 47 47 47 46 46 46 46 46 46 46 46 46 45 45 45 44 44 44 43 43 43 43 43 44 45 47 48 49 50 49 48 48 47 48 48 51 51 52 53 53 55 59 58 56 56 56 58 61 62 62 62 64 65 67 68 69 71 72
12 12 12 10 9 10 11 13 14 16 17 20 22 25 28 32 35 35 35 36 38 41 44 46 47 47 46 46 46 47 46 46 46 46 45 45 45 44 44 44 44 44 43 43 43 42 42 42 42 41 42 42 43 44 46 47 48 47 47 47 47 46 47 48 49 51 52 53 54 54 55 60 60 57 57 58 60 61 63 64 64 65 67 68 70 71 72 73
11 11 11 10 7 6 8 8 8 8 10 14 17 20 25 28 31 32 32 32 34 36 38 41 42 43 43 44 44 44 44 44 44 44 44 44 43 43 43 43 42 42 41 41 41 41 40 40 40 41 41 42 43 45 46 46 46 45 45 46 47 47 47 49 51 51 52 53 55 55 56 60 62 59 58 60 61 62 64 65 66 66 68 70 71 72 73 73
10 10 10 10 8 5 5 5 4 3 4 8 12 17 22 25 28 30 30 30 31 32 33 35 36 37 38 39 40 40 41 42 43 43 42 42 41 41 41 41 40 39 39 39 39 39 39 39 39 40 41 42 44 45 45 45 45 45 46 46 47 48 48 49 51 53 53 54 56 57 58 61 63 62 60 61 63 64 65 67 67 68 69 71 72 72 73 73
9 10 10 10 9 6 4 3 3 3 2 5 9 15 20 23 26 27 27 28 27 27 27 28 29 30 31 33 35 37 38 40 40 40 40 39 39 39 39 39 38 38 38 38 38 37 37 38 38 40 41 43 44 44 44 44 44 45 46 47 48 49 50 50 52 54 54 55 57 58 59 62 64 64 62 63 64 65 66 67 68 69 71 72 72 72 72 72
9 10 11 11 10 9 6 4 4 4 4 5 7 12 17 21 23 24 24 25 24 22 22 23 23 26 29 32 34 35 37 38 39 38 39 39 39 39 38 37 37 37 37 36 36 36 37 38 39 41 43 43 44 44 44 45 45 46 46 48 49 50 51 52 53 54 55 56 58 59 60 62 65 65 64 64 65 66 67 68 69 70 71 71 71 71 71 72
10 10 12 13 12 11 10 8 6 6 7 7 8 10 13 17 20 21 21 22 22 21 22 25 28 32 34 34 35 37 38 38 38 39 39 39 38 37 36 36 36 36 35 35 35 36 37 39 41 42 43 44 44 44 45 46 47 47 48 49 50 51 53 53 54 55 56 56 59 61 62 63 65 65 65 65 66 67 68 69 70 71 71 71 70 70 71 71
11 12 12 13 14 14 13 12 11 11 10 10 11 12 12 14 16 18 20 22 24 26 28 31 35 38 38 38 39 39 39 39 39 39 38 37 36 35 35 35 35 34 34 35 36 38 39 41 43 44 44 44 45 46 47 48 48 49 50 51 51 52 54 54 55 56 57 57 58 61 63 64 65 65 65 66 67 68 68 69 70 71 70 70 69 70 70 71
12 13 14 14 15 16 16 15 15 15 13 13 13 13 14 15 16 18 21 24 27 29 31 35 38 40 40 40 40 40 39 39 38 37 35 34 33 33 34 34 34 33 34 36 38 40 42 43 44 45 45 46 46 47 48 49 51 51 52 53 53 54 55 56 57 58 58 58 59 61 64 66 66 65 66 66 67 68 68 70 71 70 70 69 70 70 71 73
13 14 15 16 16 18 18 18 18 18 17 16 16 16 16 16 18 20 23 25 28 29 31 33 35 37 38 38 37 36 36 35 35 34 33 33 33 32 33 34 34 35 36 38 40 42 44 44 45 46 47 47 48 49 50 51 52 54 54 55 56 56 56 56 57 59 59 59 60 61 64 67 67 66 65 67 68 68 68 70 71 70 69 69 70 71 72 74
15 16 17 18 18 19 20 21 21 20 20 20 20 20 20 19 19 20 22 24 27 29 30 31 32 33 34 33 31 31 33 34 33 33 34 35 34 33 34 35 37 37 39 41 42 44 45 46 47 48 49 49 50 51 52 53 54 55 57 57 57 58 58 58 58 59 60 60 61 63 64 67 69 67 65 67 68 68 69 71 71 69 69 70 71 71 72 72
17 18 18 19 20 21 21 22 23 22 22 22 23 23 23 23 22 21 22 23 25 28 29 30 31 32 32 30 27 28 32 33 33 34 36 36 36 35 36 37 38 39 41 43 44 45 47 47 49 51 51 52 52 53 54 55 56 57 59 59 59 60 60 61 60 59 60 60 62 64 65 67 70 68 65 67 68 69 70 72 71 69 69 70 70 70 70 69
20 20 20 21 21 22 23 24 24 24 23 24 26 26 25 25 25 24 24 24 25 26 28 29 30 31 31 30 28 29 31 33 34 35 36 37 37 38 39 39 40 42 43 44 45 47 48 49 51 52 53 53 54 55 57 57 57 58 60 60 60 61 62 62 62 60 60 60 61 64 65 67 71 71 67 68 69 70 72 72 71 69 68 68 67 68 68 66
22 23 23 23 23 24 24 25 25 26 25 24 28 29 27 27 28 27 27 26 26 27 29 32 33 33 33 32 31 30 32 34 35 36 37 39 41 41 41 42 43 44 45 45 47 49 50 50 53 54 54 55 55 57 58 59 59 59 60 61 62 62 63 63 63 61 61 61 62 65 67 67 72 74 71 70 71 71 72 71 69 67 66 67 68 67 63 59
24 26 26 26 26 26 26 26 27 27 26 25 29 31 29 29 30 29 29 28 27 28 32 36 36 35 34 34 34 33 34 35 36 38 40 42 42 41 42 43 44 45 46 47 48 50 51 52 54 54 55 56 57 59 60 61 61 61 62 62 63 63 64 64 63 62 61 61 61 65 68 69 73 76 73 71 72 72 70 68 66 65 66 68 67 61 56 52
27 28 29 29 29 28 28 28 28 28 28 26 29 32 31 31 32 31 32 31 30 32 36 38 37 36 35 35 36 37 36 36 38 41 43 43 42 41 43 45 46 47 48 48 49 51 53 54 54 55 56 57 59 61 62 63 63 63 63 64 65 65 64 64 63 62 62 62 62 63 68 70 74 79 76 70 71 70 67 64 64 65 66 64 58 53 50 50
29 30 31 31 31 30 29 30 29 30 29 27 30 34 33 33 33 33 34 34 34 36 38 40 38 36 37 37 38 38 37 37 40 43 44 42 42 43 45 46 47 48 49 49 50 52 54 54 54 56 57 59 61 62 63 64 64 65 65 66 66 66 65 64 63 63 62 63 63 64 68 70 74 79 77 69 68 67 65 64 64 64 61 55 51 50 51 52
30 30 31 32 32 32 30 31 31 32 31 28 31 34 34 35 35 35 36 36 37 36 37 39 39 38 38 38 38 37 37 39 42 42 40 39 41 43 45 46 47 48 49 50 52 53 54 55 56 58 60 61 62 63 64 65 65 66 67 67 67 66 65 64 63 64 64 63 63 65 68 71 73 75 72 67 65 64 63 62 60 57 54 51 51 52 54 55
30 31 32 32 32 32 31 31 32 33 32 31 33 35 35 36 36 36 37 37 37 37 38 39 39 39 38 36 35 35 37 39 39 38 38 41 44 46 46 47 48 48 49 51 53 54 55 56 58 60 62 63 64 64 65 66 67 68 68 69 68 66 64 63 62 63 63 63 63 65 67 68 71 72 69 65 63 60 58 56 55 54 53 54 55 56 57 58
30 31 31 31 30 30 29 29 30 32 32 33 35 35 35 36 37 37 38 38 38 38 38 38 39 39 38 36 35 35 37 38 37 38 41 44 45 46 47 47 48 49 50 52 54 54 56 58 61 63 64 64 64 65 66 67 68 69 70 70 69 68 65 62 62 63 63 63 61 62 65 66 68 70 68 64 58 53 51 52 55 56 57 58 59 60 61 63
30 30 28 26 25 25 25 25 26 28 29 31 33 33 35 36 36 37 36 36 36 37 37 37 38 38 38 37 36 35 36 36 37 38 41 42 44 46 48 49 49 51 53 54 54 55 56 59 62 64 64 65 65 66 67 68 68 69 71 71 70 69 66 62 61 62 63 63 59 58 63 66 67 67 64 58 52 49 50 54 57 59 60 61 62 64 66 67
30 27 24 21 20 19 20 21 22 24 25 27 29 30 31 32 33 33 33 33 33 34 34 34 35 35 35 34 33 32 32 34 36 38 40 43 46 48 49 50 52 54 56 56 56 57 59 61 63 64 64 65 66 67 69 69 69 69 70 70 69 69 68 64 62 61 61 60 57 57 62 66 64 62 57 52 49 50 54 57 61 63 64 65 65 67 70 72
28 24 20 18 17 16 17 18 19 20 22 23 24 25 27 27 28 29 29 29 30 31 31 31 31 31 30 30 30 31 33 36 39 42 44 46 47 49 51 53 55 57 58 59 59 60 61 63 64 64 65 66 67 68 70 71 70 69 69 69 68 67 67 66 63 61 60 57 55 56 60 62 60 56 54 51 51 55 58 61 64 67 69 69 70 72 74 76
27 22 18 16 15 15 15 16 16 17 18 19 20 22 23 24 25 26 26 27 27 28 27 27 27 27 28 29 30 32 35 38 42 44 46 48 49 51 53 55 56 58 60 61 62 64 64 63 62 63 66 67 68 69 71 72 71 69 68 68 67 66 66 65 62 60 59 57 53 52 53 56 57 56 54 54 55 58 61 64 67 71 73 74 75 77 78 80
25 20 17 15 14 14 14 14 15 15 16 17 18 20 21 22 23 23 24 24 24 24 24 24 26 28 29 31 33 35 37 40 43 45 47 50 51 53 55 56 58 60 62 63 64 66 66 63 61 65 68 68 70 71 71 71 71 69 67 66 66 65 63 62 60 60 59 53 48 45 47 52 58 60 58 57 59 61 64 67 70 73 76 78 79 81 83 85
25 20 17 15 14 13 13 13 13 14 15 16 18 19 20 21 21 21 21 21 21 21 23 25 27 29 30 33 35 38 40 42 45 47 49 51 53 55 57 59 61 62 64 65 67 67 65 62 62 66 69 70 71 71 70 70 70 68 67 66 65 63 61 60 59 58 54 47 43 42 44 50 58 63 62 60 62 64 66 70 74 75 77 80 82 84 86 88
24 20 17 16 15 14 13 12 13 14 15 16 18 18 19 19 19 19 18 19 20 22 25 28 30 32 33 35 38 40 42 44 47 49 51 53 54 56 58 60 62 64 66 67 67 65 64 63 64 66 70 71 71 70 68 66 66 66 65 64 63 62 61 60 56 53 49 45 44 44 45 51 58 62 64 64 65 67 70 74 76 78 80 83 85 87 89 91
23 20 18 16 15 15 14 13 13 15 16 17 17 18 18 18 18 18 19 22 24 27 30 31 33 35 36 38 40 42 45 47 49 51 53 54 56 58 60 62 64 66 66 66 64 63 64 65 66 67 70 70 69 68 66 65 64 63 62 61 61 60 59 55 50 50 50 49 50 49 48 55 62 63 65 67 67 69 74 77 79 81 84 87 90 91 93 94
22 19 18 18 16 16 15 14 14 15 16 17 18 18 19 20 21 22 24 26 28 30 32 33 35 37 39 41 43 44 46 49 51 52 54 56 58 60 62 63 64 64 64 63 63 64 65 66 67 68 68 68 66 65 64 64 63 61 60 59 57 56 54 49 46 48 51 54 57 56 54 59 65 68 70 71 71 73 78 81 83 85 89 92 94 95 95 96
21 18 18 18 17 17 16 15 15 16 17 18 19 20 21 23 24 26 27 28 29 30 32 34 37 39 40 42 44 45 47 50 52 54 56 58 60 61 62 62 62 62 62 62 63 65 66 67 67 66 66 66 64 63 62 62 61 59 57 54 52 50 51 50 50 50 52 55 60 61 61 63 67 70 74 75 75 78 81 84 87 90 92 94 95 96 97 98
21 18 17 18 18 17 17 16 16 17 19 20 22 23 24 24 25 26 27 28 30 32 35 37 39 40 42 43 45 47 49 52 54 56 58 59 60 61 61 61 60 61 61 62 64 66 66 66 65 64 64 63 62 61 60 60 58 55 51 49 49 51 53 54 56 56 57 59 62 64 66 69 70 72 76 78 79 82 86 88 90 91 93 95 96 98 100 103
21 19 17 17 18 18 17 18 18 19 21 23 25 26 26 26 26 27 28 31 33 36 38 39 41 43 44 46 48 50 52 54 56 58 59 60 61 61 60 60 59 60 61 63 64 65 65 65 63 62 61 61 59 57 55 53 51 49 47 48 51 54 56 58 60 61 61 62 66 69 70 74 78 79 80 82 84 87 89 90 91 92 94 96 99 101 105 107
21 19 18 17 17 18 18 19 20 21 23 24 26 27 28 29 30 31 33 35 38 40 41 43 44 46 47 49 51 53 54 56 57 59 59 60 59 58 58 58 59 60 62 62 62 62 63 63 62 61 60 58 54 50 46 44 44 45 48 51 54 57 60 61 63 64 64 65 68 72 73 75 81 85 86 87 88 89 89 90 92 95 98 101 103 106 109 112
21 20 19 18 17 18 19 20 21 23 24 25 26 28 29 32 34 35 37 39 40 42 43 45 47 48 49 51 53 54 56 57 57 57 57 56 56 56 57 58 59 59 60 60 60 60 60 61 61 59 57 53 47 43 41 43 45 47 51 55 58 60 62 65 66 68 69 69 71 76 78 78 82 86 88 89 90 90 91 93 96 100 103 106 108 110 113 116
21 20 20 19 18 19 20 21 22 23 25 26 27 29 31 33 35 37 38 40 42 44 45 47 49 50 51 52 53 54 54 54 54 53 53 54 55 56 57 57 58 58 58 58 58 58 58 58 57 53 49 45 42 42 43 45 48 51 55 58 60 62 64 67 69 71 73 74 76 80 84 85 86 87 88 90 91 92 95 98 101 104 108 110 113 115 118 121
21 20 20 20 19 20 21 22 23 24 26 28 29 30 32 33 35 36 38 40 43 45 47 48 49 50 50 50 50 50 50 51 51 52 53 54 54 54 55 56 56 57 57 56 56 56 54 52 48 44 44 44 43 45 48 50 53 55 58 60 62 64 66 69 72 75 77 79 81 84 87 89 89 89 89 92 94 96 99 102 106 109 112 115 117 120 122 125
22 21 21 20 20 21 22 24 25 26 28 30 31 33 34 35 37 39 40 41 43 43 44 45 46 46 46 46 47 48 49 50 51 53 53 53 54 54 54 55 55 55 55 55 54 50 46 42 40 41 45 48 48 50 53 55 57 58 61 63 64 66 69 72 76 79 80 83 85 87 87 89 90 91 93 96 99 101 104 107 111 115 117 119 121 124 126 129
22 22 21 21 21 22 23 24 26 27 29 31 33 34 36 37 39 40 41 41 41 41 41 41 42 43 44 45 47 48 49 50 51 52 52 53 53 53 53 53 53 53 52 49 46 41 38 38 40 43 47 52 54 55 57 58 60 62 64 66 68 70 73 76 79 82 84 85 86 88 88 89 91 94 98 101 104 106 109 112 116 119 122 124 126 128 130 131
22 22 21 21 21 22 23 25 26 27 29 31 32 33 35 37 38 38 39 39 39 39 40 40 42 43 44 46 47 48 49 50 51 51 51 51 52 51 51 51 49 47 44 41 38 37 38 40 44 46 50 54 56 57 58 60 62 65 68 70 72 74 77 79 82 84 85 84 85 88 90 91 94 97 100 104 109 112 115 118 121 123 125 127 129 131 132 133
20 21 21 21 21 22 23 24 26 27 28 30 31 32 33 34 35 36 36 37 38 39 41 42 43 44 45 46 47 48 49 50 50 50 50 50 49 49 47 44 41 38 37 37 37 39 42 45 47 50 52 55 57 59 61 62 65 68 71 74 76 78 79 81 82 84 85 86 89 91 93 95 98 101 104 108 112 116 119 122 126 128 129 131 132 133 134 135
Wind_Direction
210 212 213 214 215 216 216 218 219 220 222 223 223 224 223 223 223 225 226 227 228 229 230 233 234 235 235 237 239 241 243 246 248 249 250 252 253 255 257 259 260 262 264 266 267 269 270 271 273 274 276 278 279 280 281 281 282 283 284 285 286 287 288 289 290 291 292 292 293 293 294 294 295 296 296 296 296 295 294 291 287 288 288 286 286 286 286 286
213 215 216 217 217 218 219 220 221 222 223 224 225 226 226 226 226 226 228 228 229 230 231 233 235 236 238 239 240 242 244 246 248 250 252 254 255 257 259 261 263 264 266 268 269 271 272 273 274 276 277 279 280 281 282 283 284 285 286 287 288 289 290 291 291 292 292 293 293 294 295 296 296 296 297 296 295 294 292 288 287 288 287 286 286 286 287 287
217 218 219 220 221 221 222 223 223 224 225 226 226 227 228 228 228 229 230 231 231 232 232 234 235 237 238 240 242 243 245 247 249 251 254 256 258 259 261 263 264 266 267 269 271 272 274 275 276 278 279 280 281 282 283 284 285 286 288 288 289 290 291 291 291 292 293 293 294 295 296 297 297 296 296 295 294 292 290 287 287 288 287 287 288 288 288 287
220 222 223 224 225 226 226 226 226 226 227 227 228 228 229 229 230 230 232 233 234 235 235 237 237 238 240 242 244 246 247 249 251 253 255 257 259 261 262 264 266 267 269 271 272 274 275 277 278 279 280 282 283 284 285 286 287 288 289 289 290 290 291 291 292 293 293 294 295 296 297 297 297 296 295 294 292 291 289 288 288 288 288 289 289 289 288 287
223 225 227 228 229 229 230 230 229 229 229 229 229 230 230 231 231 231 232 234 235 236 237 239 240 241 242 244 245 247 249 251 253 255 256 258 260 262 264 266 268 270 272 273 275 276 277 279 280 281 282 284 285 286 287 287 288 289 289 290 290 290 291 292 292 294 295 296 297 297 297 297 296 295 294 293 292 291 290 289 289 289 289 289 289 289 288 288
225 228 229 231 233 234 234 234 234 233 232 232 232 232 232 233 233 233 234 235 236 237 239 240 242 243 244 246 247 249 251 253 255 257 259 261 263 265 267 269 271 272 274 275 277 278 279 280 282 283 284 285 286 287 288 288 289 289 289 290 290 291 292 293 294 295 296 297 298 297 297 295 295 294 293 293 292 291 290 289 289 289 289 290 290 290 289 290
229 232 235 236 237 238 238 238 238 237 236 235 234 234 234 234 234 235 235 236 237 238 240 242 244 245 247 248 250 251 253 255 258 260 262 264 266 268 269 271 272 274 275 276 277 279 280 281 283 284 285 285 286 287 288 288 289 289 290 290 291 292 293 294 295 297 297 297 297 296 295 294 294 294 293 292 292 291 289 288 288 289 290 290 291 291 291 291
233 236 237 239 240 241 241 241 241 240 239 238 237 236 236 235 236 236 237 238 239 240 241 243 245 247 249 251 252 253 255 257 259 262 264 266 268 269 271 272 273 274 276 277 278 280 281 282 283 284 285 285 286 287 288 288 289 289 290 291 293 294 295 295 296 297 297 297 296 295 294 293 293 293 293 292 291 290 289 289 289 290 291 291 291 291 292 293
233 235 238 240 241 242 243 244 244 243 242 241 240 239 238 237 237 237 237 238 239 241 242 244 246 248 250 252 254 255 257 259 261 263 265 267 268 270 271 272 274 275 276 278 279 280 281 282 283 284 285 286 287 287 288 289 289 290 291 292 293 294 295 296 296 297 297 297 296 295 294 293 293 293 292 292 291 290 289 289 290 291 291 292 292 292 294 295
233 237 242 246 247 247 246 246 245 245 244 244 242 240 239 238 238 238 238 238 239 240 242 244 246 248 251 253 255 257 259 261 262 264 265 267 268 270 271 273 274 276 277 278 280 281 282 282 283 284 285 286 287 287 288 289 289 291 291 292 293 294 295 296 296 296 296 296 296 295 294 293 293 293 292 292 291 290 289 290 291 292 292 293 294 295 296 297
237 243 250 256 256 252 249 247 247 246 245 245 244 241 239 238 237 237 238 238 239 240 241 243 246 248 250 253 255 257 259 260 262 264 265 267 268 270 272 273 275 276 278 279 280 281 282 283 284 285 286 286 286 287 288 289 290 291 292 293 294 295 295 296 297 297 296 297 296 296 295 294 293 293 292 292 291 290 291 292 293 294 295 296 296 297 297 297
244 250 259 266 261 253 251 252 252 251 248 246 243 241 238 236 235 235 236 237 237 238 240 242 244 246 248 251 254 256 258 259 261 263 265 267 268 270 272 273 275 276 277 279 280 281 282 283 284 285 285 286 286 287 288 290 291 293 294 294 295 296 296 297 297 297 297 297 297 296 295 294 294 293 293 293 292 292 293 295 296 296 297 297 297 297 297 297
252 258 266 272 266 257 258 261 260 256 250 245 240 236 233 232 231 232 233 234 236 237 238 240 242 244 247 249 252 254 257 259 260 262 264 266 268 270 272 273 275 276 277 278 280 281 282 283 284 285 285 286 287 289 290 292 294 295 295 296 296 297 297 297 297 297 297 297 296 296 295 293 294 295 295 295 294 295 296 297 298 298 298 298 297 297 297 297
261 266 270 277 277 270 268 269 264 256 246 239 233 228 225 225 226 229 231 233 234 235 236 238 240 242 245 247 250 253 256 258 260 262 264 266 268 270 272 274 275 276 277 279 281 282 283 284 285 285 286 288 290 292 294 296 297 297 297 297 297 297 298 298 297 297 298 297 296 296 295 293 294 295 296 296 296 297 298 298 298 298 297 297 296 296 297 297
266 270 274 278 287 290 283 279 273 259 239 226 223 219 218 220 223 227 229 230 232 233 235 237 239 241 244 247 250 254 256 259 261 262 264 266 269 271 272 274 275 277 279 281 282 283 284 285 286 287 290 292 294 296 298 299 299 298 298 298 298 298 298 298 298 298 298 298 297 296 295 294 295 296 297 297 297 297 298 297 297 297 297 296 296 296 297 298
268 271 276 279 286 299 304 301 305 300 247 219 216 215 214 216 220 224 227 229 232 234 236 237 240 242 246 249 252 254 257 259 260 262 265 267 270 272 274 276 278 280 281 282 284 285 285 286 288 291 294 295 298 300 300 300 299 299 298 298 299 299 299 299 299 299 299 298 298 297 297 295 295 297 297 297 297 297 297 297 297 297 296 296 296 297 298 299
275 277 281 285 288 293 303 310 308 314 284 229 220 218 219 218 220 224 227 229 231 234 237 239 241 244 247 249 251 253 255 257 259 262 265 269 271 274 276 278 279 281 282 284 285 286 287 289 292 294 296 298 300 302 302 301 299 299 300 300 300 300 300 301 300 300 300 299 299 298 297 296 296 297 297 298 298 297 297 297 297 297 296 296 297 298 299 300
283 286 288 290 291 290 286 280 272 263 254 242 230 224 225 225 226 227 228 229 226 228 237 239 239 241 243 246 248 251 254 257 260 264 268 271 274 276 277 279 281 283 285 285 285 286 288 291 294 296 298 299 301 303 303 302 300 300 300 301 302 302 302 302 301 301 300 300 299 298 297 296 296 297 298 298 298 297 297 298 298 297 297 298 299 300 300 300
279 283 286 288 288 287 283 274 265 250 234 234 238 232 228 228 229 228 228 226 219 219 231 235 234 236 239 242 246 250 254 259 263 266 270 272 275 276 278 280 283 285 285 284 284 286 289 292 295 297 298 300 302 303 303 302 302 301 301 302 303 304 304 304 302 301 300 300 299 298 297 296 296 297 298 298 298 298 298 299 298 297 298 299 300 301 301 301
273 272 274 277 279 280 279 275 270 258 238 228 233 234 231 230 230 229 225 220 216 216 221 225 229 233 238 243 248 252 257 261 265 268 270 272 273 275 278 283 286 285 283 283 285 288 290 293 297 298 298 299 301 303 303 303 303 302 303 303 304 305 305 304 303 301 300 300 299 298 297 296 296 297 298 299 299 299 300 299 298 298 299 300 301 301 302 302
272 269 268 268 270 271 272 271 269 264 253 242 238 235 232 232 232 231 229 224 223 223 223 224 228 233 238 244 250 256 261 265 268 270 271 272 273 276 283 288 288 284 282 283 286 288 292 295 297 297 298 299 300 302 303 304 303 303 303 304 305 306 306 306 304 302 301 301 300 299 298 297 298 299 300 300 300 300 300 299 298 299 301 302 302 302 302 301
277 273 270 268 266 265 265 265 265 265 262 257 250 244 237 234 233 233 235 234 233 234 234 234 236 239 244 249 255 261 266 269 269 270 273 274 277 282 289 290 285 281 281 284 286 289 293 295 296 298 299 299 300 302 303 304 303 303 303 303 304 305 306 306 305 304 302 302 301 299 299 298 298 300 301 300 300 300 299 299 299 301 302 303 302 302 302 300
282 278 274 269 265 262 261 260 260 261 261 260 256 251 246 241 237 236 238 240 241 241 241 242 244 246 249 253 259 268 273 273 273 276 279 280 283 288 289 286 280 278 281 284 287 291 294 295 297 299 300 299 300 301 303 303 303 303 303 303 303 304 305 306 306 304 303 302 301 300 299 299 299 300 301 301 300 300 300 299 300 302 303 303 303 303 302 301
286 281 276 271 266 261 259 257 257 257 257 259 258 254 251 247 243 241 241 242 243 244 245 246 246 249 252 253 259 268 272 273 276 279 280 282 286 288 286 281 278 279 282 285 288 292 294 296 298 300 300 299 299 301 302 303 303 303 303 303 304 304 305 306 306 305 303 302 301 301 300 300 300 300 301 300 300 300 300 299 302 304 305 304 304 303 302 303
289 284 278 272 267 262 259 256 256 256 255 256 258 256 254 251 248 245 245 245 244 245 249 252 253 254 256 256 258 262 265 268 271 273 276 280 284 284 282 279 279 281 283 286 290 293 294 296 298 299 299 298 299 300 302 303 303 303 303 304 304 305 306 306 306 305 303 302 301 300 301 301 300 300 301 300 300 301 301 302 305 306 306 306 304 303 303 305
291 287 282 276 270 265 261 258 256 255 253 253 256 257 256 254 252 249 248 248 249 250 252 254 256 257 259 260 260 260 264 270 273 275 277 280 281 281 280 280 280 282 283 286 291 293 294 297 298 298 298 298 299 300 301 302 303 303 303 304 304 305 306 305 305 304 303 303 302 301 301 302 301 300 301 302 302 302 302 305 307 307 307 305 302 302 304 304
293 291 286 280 274 268 264 260 256 254 253 249 252 256 255 254 253 252 250 250 252 252 252 253 255 257 260 262 263 265 269 272 273 275 277 278 279 279 279 279 280 282 284 288 292 293 295 297 298 297 297 298 299 301 301 302 303 303 303 304 304 305 305 305 304 304 304 303 302 302 302 302 301 300 301 303 303 303 305 307 308 307 305 302 301 304 304 303
295 292 287 282 276 270 265 262 258 256 253 248 249 253 253 252 252 251 252 252 250 249 250 253 256 257 258 260 265 269 272 271 269 269 272 273 275 276 277 279 281 284 287 290 291 293 296 297 296 296 297 298 300 301 301 301 302 302 302 303 304 304 305 305 304 304 303 302 302 302 302 302 301 300 301 304 304 305 307 308 307 304 302 300 302 304 303 302
296 291 286 281 276 272 267 264 261 257 254 249 248 252 252 251 251 251 251 251 251 249 251 256 260 261 261 262 265 268 270 270 268 268 270 273 275 278 279 280 282 285 288 290 291 294 296 295 295 295 297 299 300 301 301 301 302 302 302 303 303 304 304 304 304 304 303 303 304 304 303 303 302 300 302 305 305 306 308 307 305 302 300 301 303 303 302 303
295 290 284 279 276 272 268 264 261 259 257 252 249 251 252 252 252 252 252 252 254 254 254 257 260 262 263 263 265 266 265 264 266 268 272 275 278 279 279 280 282 285 289 291 292 294 294 294 295 296 298 300 300 300 300 301 302 302 302 303 303 304 304 305 305 304 304 305 306 305 304 303 301 299 301 305 306 307 307 305 302 299 300 302 303 302 302 302
295 290 285 280 277 273 269 264 260 259 257 254 251 252 253 253 254 254 254 255 255 254 254 254 256 257 259 261 263 263 262 262 266 271 275 277 277 277 278 281 285 288 291 293 293 293 293 294 296 298 299 300 300 300 300 301 302 302 303 303 303 304 304 305 305 304 304 305 306 305 303 302 300 300 302 304 306 307 305 302 300 300 302 302 302 302 301 301
297 293 287 282 278 273 269 264 259 256 254 252 251 252 252 252 253 253 253 253 253 252 252 253 254 256 258 260 263 264 265 267 268 271 273 276 277 278 281 284 287 290 291 292 292 293 294 296 298 300 300 300 299 299 300 301 302 303 303 303 304 305 305 306 306 305 305 305 306 306 303 302 300 300 302 304 307 307 304 302 301 302 303 303 302 302 301 301
301 297 291 285 279 273 269 264 259 255 251 248 248 249 249 249 250 250 250 251 252 252 253 254 255 258 261 264 267 267 267 270 271 271 275 278 280 282 284 285 287 288 290 290 290 291 294 296 298 299 299 299 299 300 301 301 302 303 304 304 306 306 306 307 307 306 306 306 308 306 302 300 299 300 302 305 307 306 303 302 302 302 302 302 302 302 302 302
307 301 294 288 281 275 270 265 260 255 250 247 246 246 246 247 248 249 250 250 252 254 254 255 256 259 262 265 266 268 270 276 279 280 282 282 283 283 283 285 287 288 289 289 290 291 293 296 297 298 297 298 298 299 301 302 302 303 304 305 306 307 307 308 307 307 306 306 307 305 302 300 299 300 302 303 305 304 302 302 302 302 301 301 302 303 302 303
310 305 298 291 286 281 274 267 261 257 252 249 247 247 246 247 248 249 251 251 251 253 255 256 258 260 261 263 266 270 275 279 280 280 280 280 281 282 283 286 288 289 289 290 291 292 294 297 298 298 298 298 299 300 302 303 303 305 306 307 307 307 307 308 309 309 307 306 306 305 302 301 300 301 301 303 305 304 304 304 304 303 303 303 304 303 303 304
312 307 300 294 291 285 276 268 261 256 253 250 248 247 247 247 248 248 248 248 249 251 254 256 258 259 261 264 269 273 276 277 276 277 277 278 280 282 284 286 288 289 290 291 292 294 296 297 297 298 298 298 299 301 303 304 305 306 307 307 307 307 307 308 309 308 306 306 307 305 304 302 301 301 301 304 306 305 305 305 304 304 304 305 305 305 305 305
313 308 301 297 294 287 277 270 262 256 253 249 247 247 247 247 246 246 247 249 250 252 253 254 257 260 265 268 271 272 273 274 274 276 278 280 281 283 285 287 288 289 290 291 294 296 297 298 298 299 299 299 301 303 304 306 307 308 307 307 307 307 308 308 307 306 305 306 307 306 304 303 302 301 301 304 305 304 305 304 303 304 305 306 306 306 306 306
312 308 302 297 295 288 278 272 265 256 253 250 249 248 246 246 246 245 247 249 248 249 252 256 260 264 267 268 270 270 271 273 274 276 278 280 282 284 286 287 288 289 291 293 295 297 297 297 299 300 300 301 303 304 306 307 308 308 307 307 307 308 307 306 305 304 305 306 306 304 303 302 302 302 303 305 304 304 304 304 303 304 305 305 305 305 305 304
310 307 301 296 294 288 278 273 268 259 254 251 249 248 246 246 246 245 244 245 247 252 257 261 264 267 268 269 270 271 273 274 276 277 279 281 283 285 286 287 289 291 293 295 296 297 297 298 299 300 300 302 304 305 307 307 307 306 307 307 308 307 306 305 305 305 305 304 302 300 301 300 298 299 302 303 303 304 304 303 303 304 304 303 303 303 303 302
308 305 298 292 290 286 278 272 270 264 257 253 249 247 246 244 242 242 242 243 247 253 258 261 264 268 270 271 272 274 276 277 277 279 281 282 284 285 287 289 291 293 295 296 297 298 298 299 300 301 302 304 305 307 307 306 305 306 307 307 307 305 304 305 306 306 306 305 303 301 302 301 298 298 300 301 302 304 303 302 303 303 303 303 302 302 302 302
305 301 294 288 285 282 277 270 268 266 260 253 248 243 240 238 236 238 242 245 249 254 259 263 266 269 272 274 275 276 278 279 280 281 283 284 285 287 289 291 293 295 296 297 298 299 299 300 302 303 304 305 306 306 306 306 306 307 307 306 305 303 303 304 305 304 305 306 305 305 305 303 302 303 303 303 305 305 304 303 304 304 303 303 302 302 302 302
302 296 288 284 282 278 273 267 262 261 257 252 247 242 239 240 242 245 249 252 255 259 263 266 269 271 273 275 276 278 279 281 282 283 285 286 287 290 292 294 295 296 297 298 299 300 301 302 304 305 305 305 305 306 306 306 307 306 306 305 304 303 303 304 304 304 305 306 305 305 305 303 303 304 304 304 306 305 304 304 304 304 303 302 302 302 302 302
299 293 284 280 277 274 269 262 256 253 249 245 244 244 244 247 251 254 257 260 262 265 267 270 271 273 275 277 278 280 281 282 284 285 286 288 290 292 295 296 297 297 298 299 300 302 303 304 304 305 305 305 306 307 308 307 306 306 306 306 305 305 306 306 307 307 307 307 305 306 306 304 304 304 303 305 305 305 304 304 304 303 303 302 303 303 303 304
296 292 285 277 274 271 266 259 253 249 246 245 246 247 249 251 255 259 263 265 267 268 271 273 275 277 278 279 280 281 281 283 284 286 288 290 293 295 296 296 297 298 299 301 302 303 304 304 304 304 304 305 307 307 307 306 306 306 307 307 306 306 307 307 307 307 308 308 307 307 307 307 307 306 305 306 306 306 305 305 305 304 303 303 304 304 304 304
295 291 285 278 272 268 262 256 251 250 250 251 252 253 253 254 256 260 262 264 266 269 272 274 276 277 277 278 279 280 282 284 286 288 291 293 294 295 296 296 298 300 302 303 304 304 304 304 304 305 306 306 306 306 305 304 305 306 306 306 307 307 308 308 308 308 308 309 308 307 307 308 307 307 307 307 307 306 306 305 305 304 304 304 304 304 304 304
293 290 284 277 271 266 261 256 252 252 254 256 258 259 259 258 259 260 263 265 267 270 272 273 274 275 277 279 281 284 286 288 290 291 293 294 294 295 296 299 301 302 303 304 304 304 304 305 306 307 306 306 306 306 305 306 306 307 307 307 307 308 309 309 309 309 309 309 309 307 306 307 306 306 307 307 306 305 305 304 304 304 304 304 304 304 304 304
291 288 283 276 270 264 260 258 257 256 258 261 262 263 263 263 264 266 268 270 272 274 275 276 278 280 282 285 286 288 290 291 293 293 294 294 296 298 300 302 303 304 304 304 304 305 306 306 307 308 306 306 307 307 307 307 307 307 307 307 308 309 309 309 309 309 309 309 309 308 307 307 307 306 306 305 305 304 304 304 304 304 304 304 304 304 304 305
290 287 282 277 271 265 262 262 262 262 263 265 267 269 269 271 273 275 277 278 279 280 280 281 283 285 287 288 290 292 293 293 294 295 296 298 300 302 304 304 304 304 304 305 305 306 307 307 308 308 306 307 308 308 308 308 308 308 308 308 308 309 309 309 309 308 309 309 309 308 307 307 307 307 306 305 305 305 305 305 305 304 304 304 304 305 306 306
289 286 283 278 274 269 266 266 267 268 269 270 272 274 276 278 280 282 283 284 285 285 285 286 287 289 290 292 293 293 294 295 297 298 300 302 303 304 305 305 305 305 306 306 306 307 308 308 309 309 308 308 310 310 310 310 310 310 309 309 309 310 310 309 309 308 309 309 308 308 307 307 307 307 306 306 306 306 306 305 305 304 304 305 306 306 307 307
287 285 284 281 277 274 272 271 271 272 272 273 275 277 279 281 283 285 287 288 289 289 290 290 291 292 293 293 294 295 297 299 300 302 303 304 305 306 306 306 306 306 306 306 307 309 310 310 309 309 309 309 311 311 312 311 311 311 310 310 310 310 310 309 309 309 309 309 308 308 307 307 307 307 307 306 306 306 305 305 305 305 306 306 307 307 306 306
285 284 284 282 280 279 277 276 276 276 277 278 279 281 283 284 286 288 289 290 291 292 292 293 293 294 295 296 298 299 301 302 302 303 304 305 306 306 306 306 306 306 306 308 310 311 310 309 309 310 310 310 311 311 311 312 312 311 311 310 310 310 309 309 309 309 309 308 307 307 307 307 307 306 306 306 306 306 307 307 306 306 306 306 306 306 306 306
282 282 283 282 282 282 281 281 282 282 283 284 286 287 288 289 290 291 292 292 293 293 294 295 296 297 298 300 301 302 302 303 304 305 306 307 306 306 306 306 306 307 309 310 311 310 309 309 310 310 311 310 310 311 311 311 311 310 309 309 309 309 309 309 309 309 309 309 308 307 307 307 306 306 306 307 307 307 307 306 306 306 306 306 306 307 307 308
Height
10734 10735 10737 10738 10740 10741 10742 10744 10745 10746 10748 10749 10751 10753 10755 10757 10758 10759 10760 10761 10762 10764 10765 10766 10767 10768 10769 10770 10771 10771 10771 10772 10772 10772 10772 10772 10772 10772 10771 10770 10770 10769 10768 10767 10766 10766 10765 10764 10762 10761 10760 10758 10757 10755 10753 10752 10750 10748 10746 10744 10742 10739 10737 10734 10731 10729 10726 10723 10720 10718 10715 10712 10709 10705 10703 10700 10698 10694 10692 10688 10682 10680 10680 10678 10674 10671 10670 10667
10733 10734 10735 10736 10738 10739 10740 10741 10743 10744 10745 10747 10748 10750 10752 10754 10755 10757 10758 10759 10761 10762 10763 10764 10765 10766 10767 10767 10768 10768 10769 10769 10769 10769 10769 10769 10769 10769 10768 10767 10766 10765 10765 10764 10763 10762 10761 10759 10758 10757 10756 10754 10752 10750 10749 10747 10745 10743 10741 10739 10736 10734 10731 10728 10726 10723 10721 10718 10715 10712 10709 10706 10703 10699 10697 10695 10692 10689 10687 10681 10676 10675 10674 10672 10669 10666 10664 10661
10731 10732 10733 10734 10736 10737 10738 10739 10740 10742 10743 10744 10745 10746 10748 10750 10752 10754 10756 10757 10758 10760 10761 10762 10762 10763 10764 10765 10765 10766 10766 10766 10766 10766 10766 10766 10766 10765 10764 10763 10763 10762 10761 10760 10759 10757 10756 10755 10754 10752 10751 10749 10748 10746 10744 10742 10740 10738 10736 10734 10731 10729 10726 10723 10720 10718 10715 10712 10709 10706 10703 10700 10697 10694 10692 10690 10687 10684 10681 10675 10671 10669 10667 10666 10663 10660 10658 10655
10730 10731 10732 10733 10734 10735 10736 10737 10737 10738 10739 10740 10742 10743 10745 10747 10749 10751 10752 10754 10755 10757 10758 10759 10760 10761 10762 10762 10763 10763 10763 10764 10764 10763 10763 10763 10762 10762 10761 10760 10759 10758 10757 10756 10755 10753 10752 10750 10749 10748 10746 10744 10742 10741 10739 10737 10735 10733 10730 10728 10726 10724 10721 10718 10715 10712 10710 10707 10703 10700 10697 10694 10692 10689 10687 10685 10681 10678 10674 10669 10666 10663 10660 10660 10657 10654 10652 10648
10728 10729 10730 10731 10732 10732 10733 10734 10734 10735 10736 10737 10738 10740 10741 10743 10745 10747 10749 10750 10752 10753 10755 10756 10757 10758 10759 10759 10760 10760 10760 10761 10761 10760 10760 10759 10759 10758 10757 10756 10755 10754 10753 10751 10750 10748 10747 10746 10744 10743 10741 10739 10737 10735 10734 10732 10730 10727 10725 10723 10721 10718 10716 10713 10710 10707 10704 10701 10698 10695 10692 10689 10686 10684 10682 10680 10676 10672 10668 10663 10660 10657 10654 10654 10652 10649 10645 10642
10727 10727 10728 10729 10729 10730 10730 10731 10731 10731 10732 10734 10735 10736 10738 10739 10741 10744 10745 10747 10748 10750 10751 10753 10753 10754 10755 10756 10756 10757 10757 10758 10757 10756 10756 10756 10755 10755 10753 10752 10751 10750 10748 10747 10745 10744 10742 10741 10739 10738 10736 10734 10732 10730 10729 10727 10725 10723 10720 10718 10716 10713 10711 10707 10704 10702 10698 10695 10692 10689 10687 10684 10682 10679 10676 10674 10671 10666 10662 10658 10654 10652 10649 10647 10645 10642 10639 10636
10726 10726 10727 10727 10727 10727 10727 10727 10727 10728 10728 10730 10731 10732 10734 10736 10738 10740 10742 10743 10745 10747 10748 10749 10750 10751 10752 10752 10753 10753 10754 10754 10753 10753 10753 10752 10752 10751 10749 10748 10747 10745 10744 10743 10741 10740 10738 10737 10735 10734 10732 10730 10728 10726 10724 10722 10720 10718 10716 10713 10711 10708 10705 10702 10699 10696 10692 10690 10687 10684 10681 10679 10677 10675 10671 10668 10665 10661 10656 10652 10649 10647 10644 10641 10639 10636 10632 10630
10724 10725 10725 10725 10725 10724 10724 10724 10724 10724 10724 10725 10726 10728 10730 10732 10734 10736 10738 10740 10741 10743 10745 10746 10747 10748 10748 10748 10749 10750 10750 10750 10749 10749 10749 10748 10748 10746 10745 10744 10742 10741 10740 10738 10737 10736 10734 10733 10731 10730 10728 10726 10724 10722 10720 10718 10716 10713 10711 10708 10705 10703 10700 10697 10694 10691 10687 10685 10682 10678 10676 10673 10672 10671 10666 10663 10660 10655 10651 10647 10644 10642 10639 10637 10633 10629 10626 10624
10723 10723 10723 10722 10722 10721 10721 10720 10720 10720 10720 10721 10722 10724 10726 10728 10730 10732 10734 10736 10738 10740 10741 10742 10743 10744 10744 10745 10745 10746 10746 10746 10746 10745 10745 10744 10743 10742 10741 10740 10738 10737 10736 10734 10733 10732 10730 10729 10727 10726 10724 10722 10720 10718 10715 10713 10711 10708 10706 10703 10701 10698 10695 10692 10689 10686 10682 10680 10676 10672 10670 10667 10666 10665 10661 10657 10655 10650 10645 10642 10640 10637 10634 10631 10627 10623 10620 10618
10721 10721 10720 10720 10719 10718 10718 10717 10717 10716 10716 10716 10717 10719 10721 10723 10726 10728 10729 10732 10734 10736 10738 10739 10740 10741 10741 10741 10742 10742 10743 10742 10742 10742 10741 10740 10739 10739 10737 10736 10734 10733 10732 10730 10729 10728 10726 10725 10723 10722 10720 10718 10716 10713 10711 10708 10706 10703 10701 10698 10696 10693 10691 10687 10684 10681 10677 10674 10671 10666 10663 10662 10661 10659 10656 10652 10649 10643 10639 10638 10636 10632 10629 10625 10621 10617 10614 10611
10719 10719 10718 10717 10716 10715 10715 10714 10713 10712 10712 10712 10713 10715 10717 10719 10721 10723 10725 10728 10731 10733 10734 10736 10737 10738 10738 10738 10738 10739 10739 10738 10738 10738 10737 10736 10736 10735 10734 10732 10731 10729 10728 10727 10725 10724 10722 10721 10719 10718 10716 10714 10711 10709 10706 10704 10702 10699 10696 10694 10691 10688 10686 10683 10679 10676 10672 10669 10666 10661 10655 10654 10655 10653 10651 10648 10643 10637 10633 10633 10631 10626 10622 10618 10614 10610 10607 10603
10717 10717 10716 10715 10714 10713 10712 10711 10710 10709 10708 10708 10709 10710 10712 10715 10717 10719 10722 10724 10727 10729 10731 10732 10733 10734 10735 10735 10735 10735 10735 10735 10735 10734 10733 10732 10732 10731 10730 10729 10727 10726 10725 10723 10722 10720 10718 10717 10715 10713 10711 10709 10707 10705 10702 10700 10697 10695 10692 10689 10686 10683 10681 10678 10674 10670 10667 10664 10660 10657 10650 10645 10647 10646 10645 10643 10637 10631 10628 10626 10624 10619 10615 10611 10607 10603 10599 10596
10715 10715 10714 10713 10712 10711 10710 10708 10707 10706 10705 10705 10705 10707 10709 10712 10714 10716 10718 10721 10723 10726 10727 10729 10730 10731 10731 10731 10731 10731 10731 10731 10731 10730 10730 10729 10728 10727 10726 10725 10724 10722 10721 10720 10718 10716 10715 10713 10711 10709 10707 10705 10703 10701 10698 10695 10693 10690 10687 10684 10681 10679 10676 10673 10669 10665 10662 10659 10655 10653 10646 10638 10639 10640 10637 10635 10631 10625 10621 10619 10617 10613 10608 10605 10601 10596 10592 10589
10714 10713 10712 10711 10710 10709 10708 10707 10705 10704 10703 10702 10703 10704 10706 10709 10711 10714 10716 10718 10720 10722 10724 10725 10727 10727 10728 10728 10728 10728 10728 10727 10727 10726 10726 10725 10724 10724 10723 10722 10720 10719 10717 10716 10714 10713 10711 10709 10707 10705 10703 10701 10699 10696 10694 10691 10688 10685 10682 10679 10677 10674 10672 10667 10664 10660 10656 10653 10649 10647 10642 10632 10631 10634 10632 10628 10624 10620 10616 10612 10610 10607 10602 10598 10593 10589 10585 10582
10712 10711 10711 10710 10709 10708 10706 10705 10704 10703 10702 10702 10702 10703 10705 10708 10710 10712 10714 10716 10717 10719 10721 10722 10724 10724 10725 10725 10725 10725 10724 10724 10724 10723 10722 10722 10721 10720 10719 10718 10716 10715 10714 10712 10710 10709 10707 10705 10703 10701 10699 10697 10694 10692 10689 10686 10683 10680 10678 10675 10672 10669 10667 10663 10658 10655 10652 10648 10642 10640 10636 10627 10622 10625 10626 10622 10617 10615 10610 10606 10604 10600 10596 10591 10586 10583 10579 10576
10710 10710 10709 10708 10708 10707 10706 10705 10704 10703 10702 10702 10703 10704 10705 10707 10709 10711 10712 10714 10715 10717 10718 10720 10721 10722 10722 10723 10722 10722 10721 10721 10720 10719 10719 10718 10718 10717 10716 10714 10713 10712 10710 10708 10707 10705 10703 10701 10699 10697 10695 10692 10690 10687 10685 10682 10679 10676 10673 10670 10667 10664 10662 10659 10653 10649 10646 10642 10637 10632 10629 10622 10616 10617 10618 10615 10611 10608 10604 10599 10596 10593 10589 10584 10580 10576 10573 10569
10709 10708 10708 10707 10706 10706 10706 10705 10704 10704 10703 10703 10703 10704 10705 10706 10708 10709 10711 10712 10714 10715 10716 10718 10719 10719 10720 10720 10719 10719 10718 10717 10716 10716 10716 10715 10714 10713 10712 10711 10709 10708 10706 10704 10703 10701 10699 10697 10695 10693 10691 10688 10686 10683 10680 10678 10675 10672 10668 10665 10662 10659 10656 10653 10648 10643 10640 10635 10630 10626 10622 10616 10610 10610 10611 10608 10604 10601 10597 10593 10589 10585 10581 10577 10573 10570 10566 10561
10708 10707 10706 10706 10705 10705 10705 10705 10705 10704 10704 10704 10704 10704 10705 10706 10707 10708 10710 10711 10712 10713 10715 10716 10717 10717 10717 10717 10717 10716 10715 10714 10714 10713 10713 10712 10711 10709 10708 10707 10705 10704 10702 10701 10699 10698 10696 10694 10692 10689 10687 10684 10681 10679 10676 10673 10671 10668 10665 10661 10658 10653 10650 10647 10643 10638 10634 10629 10623 10619 10617 10611 10604 10603 10602 10601 10598 10593 10589 10586 10582 10577 10573 10570 10566 10563 10558 10554
10707 10706 10705 10705 10704 10704 10704 10704 10704 10704 10704 10704 10704 10704 10704 10705 10706 10707 10708 10709 10710 10712 10713 10715 10715 10715 10715 10714 10714 10713 10712 10712 10711 10710 10710 10709 10707 10706 10705 10703 10702 10701 10699 10697 10696 10694 10692 10690 10688 10685 10682 10680 10677 10674 10671 10669 10666 10663 10660 10657 10654 10649 10645 10641 10637 10633 10629 10625 10618 10612 10609 10605 10600 10597 10595 10593 10590 10586 10582 10578 10573 10569 10566 10563 10560 10555 10551 10547
10706 10705 10705 10704 10703 10703 10702 10703 10703 10703 10703 10703 10703 10704 10704 10704 10705 10706 10706 10707 10708 10709 10711 10712 10712 10712 10712 10712 10711 10710 10709 10709 10708 10708 10707 10705 10704 10703 10702 10700 10698 10697 10695 10694 10692 10690 10688 10686 10683 10681 10678 10675 10673 10670 10667 10664 10661 10658 10655 10652 10648 10645 10640 10636 10631 10627 10623 10619 10614 10607 10601 10597 10594 10592 10590 10587 10582 10578 10575 10570 10565 10562 10559 10556 10553 10548 10543 10539
10704 10704 10703 10703 10703 10702 10701 10701 10701 10701 10701 10702 10702 10702 10703 10703 10703 10704 10705 10705 10706 10707 10708 10708 10709 10709 10709 10708 10708 10707 10707 10706 10705 10704 10703 10702 10701 10700 10698 10697 10695 10693 10692 10690 10688 10686 10684 10682 10679 10677 10674 10671 10668 10666 10663 10659 10656 10653 10650 10647 10643 10640 10636 10631 10626 10620 10616 10613 10608 10602 10594 10588 10587 10586 10583 10580 10574 10571 10567 10561 10557 10554 10552 10549 10545 10540 10536 10530
10702 10702 10702 10701 10701 10701 10700 10700 10699 10699 10699 10700 10700 10701 10701 10701 10701 10702 10702 10703 10703 10704 10705 10705 10706 10706 10706 10706 10705 10705 10705 10703 10702 10701 10700 10699 10697 10696 10694 10693 10692 10690 10688 10686 10684 10682 10680 10678 10675 10672 10669 10666 10664 10661 10658 10655 10651 10648 10645 10642 10638 10634 10631 10627 10621 10614 10609 10606 10601 10596 10589 10581 10578 10580 10577 10573 10567 10564 10560 10554 10550 10548 10545 10542 10537 10533 10528 10521
10700 10700 10700 10699 10699 10699 10698 10698 10697 10697 10697 10698 10698 10698 10699 10699 10699 10699 10700 10700 10701 10701 10702 10702 10703 10703 10703 10703 10703 10702 10701 10700 10699 10698 10696 10695 10693 10692 10691 10690 10688 10686 10684 10682 10680 10678 10676 10673 10670 10667 10664 10661 10659 10656 10653 10650 10646 10642 10639 10636 10633 10628 10624 10621 10617 10610 10604 10600 10594 10589 10584 10575 10570 10571 10571 10566 10560 10556 10551 10546 10544 10543 10539 10534 10529 10525 10519 10513
10698 10698 10697 10697 10697 10696 10696 10695 10695 10695 10695 10695 10695 10695 10696 10696 10697 10697 10697 10698 10698 10699 10699 10699 10699 10699 10699 10699 10699 10699 10698 10697 10696 10694 10693 10691 10690 10689 10688 10686 10685 10683 10680 10678 10676 10674 10671 10669 10666 10662 10659 10656 10654 10651 10648 10645 10642 10637 10632 10629 10626 10622 10618 10614 10610 10605 10599 10594 10588 10581 10577 10569 10561 10562 10565 10559 10553 10550 10544 10539 10537 10536 10532 10526 10521 10516 10510 10506
10695 10695 10695 10694 10694 10693 10693 10693 10692 10692 10693 10693 10692 10692 10693 10693 10694 10694 10694 10695 10695 10696 10696 10696 10696 10696 10696 10696 10695 10695 10695 10694 10692 10691 10689 10688 10687 10686 10684 10683 10681 10678 10676 10674 10672 10669 10666 10664 10661 10658 10654 10651 10649 10645 10642 10639 10637 10633 10627 10623 10620 10616 10612 10607 10603 10599 10594 10589 10583 10575 10570 10564 10552 10551 10556 10552 10546 10543 10537 10532 10531 10528 10523 10518 10513 10507 10504 10501
10693 10692 10691 10691 10690 10690 10690 10690 10689 10689 10690 10690 10689 10689 10690 10690 10690 10691 10691 10692 10692 10693 10693 10693 10693 10692 10692 10692 10692 10692 10691 10690 10688 10687 10686 10685 10683 10682 10680 10678 10676 10674 10672 10670 10668 10664 10662 10660 10656 10652 10649 10645 10643 10640 10636 10633 10631 10627 10622 10617 10614 10610 10606 10601 10596 10592 10587 10583 10578 10568 10562 10559 10546 10540 10545 10543 10538 10536 10530 10526 10524 10519 10514 10509 10503 10500 10498 10494
10690 10689 10687 10687 10686 10686 10686 10686 10686 10685 10686 10687 10686 10685 10686 10686 10686 10687 10688 10688 10689 10689 10689 10689 10689 10689 10689 10688 10688 10688 10687 10686 10684 10683 10682 10681 10679 10678 10676 10674 10672 10670 10668 10667 10664 10659 10657 10655 10651 10647 10644 10640 10637 10634 10630 10626 10624 10621 10616 10612 10608 10604 10600 10595 10590 10586 10581 10576 10572 10564 10554 10551 10541 10531 10536 10537 10530 10528 10526 10521 10517 10512 10506 10500 10496 10494 10491 10487
10687 10685 10684 10683 10682 10682 10682 10682 10682 10682 10683 10684 10683 10682 10682 10683 10683 10683 10684 10684 10685 10685 10685 10685 10685 10685 10685 10685 10684 10684 10683 10682 10681 10679 10678 10677 10676 10674 10672 10670 10668 10666 10663 10662 10660 10655 10652 10649 10645 10641 10638 10635 10631 10628 10624 10620 10617 10614 10610 10606 10602 10598 10593 10589 10584 10579 10575 10570 10567 10561 10550 10544 10535 10521 10524 10531 10524 10519 10519 10515 10509 10503 10497 10492 10491 10489 10485 10481
10683 10682 10680 10679 10678 10677 10678 10677 10678 10678 10678 10680 10679 10678 10678 10679 10679 10680 10680 10680 10681 10681 10681 10681 10681 10681 10681 10681 10681 10680 10679 10678 10677 10675 10674 10673 10671 10670 10668 10665 10664 10662 10659 10657 10654 10651 10648 10644 10640 10636 10633 10630 10625 10621 10617 10614 10610 10606 10603 10599 10595 10592 10587 10583 10578 10573 10569 10564 10560 10555 10545 10538 10530 10515 10514 10522 10519 10513 10511 10506 10500 10494 10489 10487 10486 10482 10479 10476
10680 10678 10676 10675 10673 10673 10673 10673 10673 10673 10674 10676 10675 10674 10675 10675 10675 10676 10677 10677 10677 10678 10678 10677 10677 10677 10677 10677 10677 10676 10675 10674 10673 10671 10670 10669 10667 10665 10663 10661 10659 10657 10655 10652 10649 10646 10643 10638 10635 10631 10627 10624 10619 10615 10611 10607 10604 10599 10596 10592 10589 10586 10581 10577 10572 10565 10561 10558 10554 10548 10539 10531 10522 10512 10512 10516 10513 10508 10503 10497 10491 10486 10484 10482 10480 10476 10473 10470
10676 10674 10672 10670 10669 10668 10668 10668 10668 10668 10670 10671 10671 10671 10671 10671 10672 10673 10673 10674 10674 10674 10674 10674 10673 10673 10673 10673 10672 10672 10671 10670 10669 10668 10666 10664 10662 10660 10658 10657 10655 10653 10651 10647 10643 10641 10637 10633 10629 10625 10621 10617 10613 10609 10605 10601 10597 10592 10588 10584 10581 10579 10576 10572 10568 10561 10556 10552 10548 10542 10532 10525 10514 10506 10507 10511 10508 10504 10497 10489 10483 10480 10478 10476 10472 10469 10465 10462
10672 10670 10667 10666 10664 10663 10663 10663 10664 10664 10665 10666 10666 10667 10668 10668 10669 10669 10670 10670 10670 10670 10670 10670 10670 10670 10670 10669 10669 10668 10667 10666 10665 10664 10662 10660 10658 10655 10654 10653 10651 10649 10647 10643 10639 10636 10632 10627 10622 10618 10614 10610 10606 10602 10598 10595 10590 10585 10580 10576 10573 10570 10568 10566 10561 10555 10550 10546 10543 10535 10523 10516 10508 10500 10501 10503 10502 10498 10490 10483 10477 10474 10471 10468 10464 10461 10456 10453
10668 10666 10663 10662 10660 10659 10659 10659 10659 10660 10661 10662 10662 10663 10664 10664 10665 10665 10666 10666 10666 10666 10666 10666 10666 10666 10666 10666 10666 10665 10664 10662 10661 10659 10657 10655 10654 10651 10649 10648 10646 10643 10641 10639 10635 10632 10628 10623 10618 10612 10608 10603 10599 10595 10592 10589 10585 10579 10573 10568 10565 10560 10558 10560 10556 10549 10543 10537 10535 10529 10516 10508 10502 10497 10496 10496 10495 10491 10484 10478 10472 10468 10465 10461 10457 10453 10448 10444
10665 10662 10660 10658 10657 10657 10656 10656 10656 10657 10657 10658 10659 10660 10660 10661 10662 10662 10662 10663 10663 10662 10662 10663 10663 10663 10663 10663 10662 10661 10660 10658 10657 10655 10654 10652 10649 10647 10645 10643 10640 10637 10635 10633 10630 10627 10624 10620 10614 10608 10603 10598 10594 10590 10585 10581 10578 10574 10568 10562 10558 10552 10548 10549 10548 10543 10537 10532 10528 10522 10510 10500 10495 10493 10492 10491 10490 10484 10478 10472 10466 10461 10457 10454 10451 10446 10441 10437
10662 10660 10658 10656 10655 10654 10654 10654 10654 10654 10655 10655 10656 10657 10658 10658 10659 10659 10659 10660 10660 10659 10659 10660 10660 10660 10660 10660 10659 10658 10657 10655 10653 10651 10650 10648 10645 10643 10640 10638 10634 10631 10628 10626 10624 10621 10618 10615 10609 10602 10596 10592 10588 10584 10579 10574 10571 10568 10562 10557 10552 10547 10541 10538 10537 10532 10527 10525 10522 10515 10504 10493 10488 10487 10486 10485 10484 10478 10471 10465 10457 10451 10447 10444 10442 10438 10432 10427
10660 10658 10656 10655 10654 10653 10652 10652 10652 10652 10653 10653 10654 10654 10655 10656 10656 10656 10656 10656 10656 10657 10657 10657 10658 10657 10657 10656 10655 10654 10653 10652 10650 10648 10645 10643 10641 10638 10636 10633 10629 10626 10622 10619 10616 10614 10612 10610 10604 10596 10590 10586 10582 10578 10572 10567 10563 10560 10556 10551 10546 10541 10536 10531 10528 10524 10518 10517 10515 10509 10500 10489 10482 10481 10480 10479 10477 10471 10464 10457 10450 10442 10437 10434 10431 10426 10421 10416
10658 10656 10655 10653 10653 10652 10651 10651 10651 10651 10651 10651 10652 10652 10653 10653 10653 10654 10654 10654 10654 10655 10655 10655 10655 10654 10654 10653 10652 10651 10650 10648 10646 10644 10641 10638 10636 10634 10631 10627 10624 10621 10617 10614 10611 10607 10604 10603 10598 10590 10583 10579 10575 10571 10566 10560 10555 10552 10548 10543 10539 10535 10530 10524 10520 10515 10512 10511 10509 10503 10497 10487 10476 10472 10474 10474 10470 10464 10458 10451 10443 10436 10430 10425 10420 10415 10410 10404
10656 10654 10653 10652 10651 10651 10650 10650 10649 10650 10649 10650 10650 10650 10651 10651 10651 10651 10652 10652 10653 10653 10653 10653 10652 10652 10651 10650 10649 10647 10646 10644 10641 10639 10636 10633 10631 10628 10625 10622 10619 10615 10611 10608 10605 10601 10597 10595 10593 10584 10576 10572 10568 10563 10560 10555 10548 10544 10540 10535 10531 10527 10522 10518 10513 10509 10506 10506 10503 10499 10494 10485 10473 10465 10465 10466 10462 10457 10452 10444 10436 10431 10425 10419 10413 10408 10402 10396
10654 10652 10652 10651 10650 10650 10649 10649 10649 10648 10648 10648 10649 10649 10649 10649 10649 10650 10650 10651 10651 10651 10651 10650 10649 10648 10648 10647 10645 10643 10641 10640 10637 10635 10632 10629 10626 10623 10620 10617 10613 10610 10606 10602 10598 10595 10590 10587 10586 10579 10570 10566 10562 10557 10554 10551 10544 10538 10533 10529 10524 10519 10513 10510 10507 10502 10500 10500 10497 10495 10491 10482 10471 10464 10461 10458 10456 10451 10444 10436 10429 10425 10418 10411 10406 10401 10395 10389
10652 10651 10650 10649 10649 10648 10648 10648 10647 10647 10647 10647 10647 10647 10647 10648 10648 10648 10649 10649 10649 10649 10648 10648 10647 10645 10644 10643 10641 10639 10636 10634 10632 10630 10627 10624 10622 10618 10615 10611 10608 10604 10600 10596 10592 10588 10584 10580 10577 10572 10565 10559 10555 10551 10547 10542 10538 10534 10528 10523 10518 10512 10506 10504 10502 10496 10492 10491 10488 10487 10486 10475 10464 10461 10457 10452 10450 10445 10436 10427 10422 10417 10409 10401 10395 10390 10385 10378
10651 10650 10649 10648 10647 10647 10646 10646 10646 10646 10646 10646 10646 10646 10646 10646 10646 10647 10647 10647 10647 10646 10645 10645 10644 10642 10641 10639 10637 10635 10632 10629 10627 10625 10622 10619 10616 10613 10610 10606 10602 10598 10594 10590 10585 10581 10577 10573 10568 10564 10558 10553 10549 10546 10541 10535 10530 10527 10522 10517 10511 10505 10501 10500 10499 10494 10488 10484 10477 10476 10477 10468 10456 10451 10447 10443 10442 10436 10426 10418 10413 10406 10398 10390 10383 10377 10372 10365
10650 10649 10647 10646 10646 10646 10645 10645 10645 10644 10645 10645 10645 10645 10645 10645 10645 10645 10645 10645 10644 10644 10643 10642 10640 10639 10637 10635 10633 10631 10628 10625 10621 10619 10617 10613 10610 10607 10604 10600 10597 10593 10588 10584 10579 10574 10570 10566 10561 10556 10551 10546 10542 10539 10534 10529 10524 10519 10515 10510 10505 10500 10496 10493 10492 10490 10486 10480 10472 10467 10466 10460 10453 10445 10437 10434 10433 10425 10416 10410 10403 10396 10386 10378 10372 10366 10359 10351
10648 10647 10646 10645 10644 10644 10644 10644 10643 10643 10644 10644 10643 10643 10644 10644 10643 10643 10643 10643 10642 10641 10640 10638 10636 10634 10632 10631 10628 10626 10624 10620 10616 10614 10611 10608 10605 10602 10598 10594 10591 10587 10582 10578 10572 10567 10563 10558 10554 10550 10545 10540 10536 10532 10527 10521 10516 10512 10508 10504 10498 10494 10490 10487 10483 10481 10479 10474 10465 10460 10456 10449 10445 10440 10432 10427 10423 10415 10407 10400 10393 10385 10376 10367 10360 10353 10346 10339
10647 10645 10645 10644 10643 10643 10643 10642 10642 10642 10642 10642 10642 10642 10642 10642 10642 10642 10641 10640 10639 10637 10636 10634 10632 10630 10628 10626 10623 10621 10618 10616 10612 10609 10606 10603 10600 10596 10593 10588 10585 10580 10576 10572 10566 10561 10556 10550 10547 10544 10540 10536 10532 10528 10522 10516 10511 10506 10502 10498 10494 10489 10485 10481 10477 10473 10471 10466 10458 10451 10447 10438 10429 10425 10422 10417 10411 10403 10395 10387 10379 10371 10364 10356 10350 10342 10333 10326
10645 10644 10643 10643 10642 10641 10641 10641 10641 10640 10640 10640 10640 10640 10640 10640 10640 10639 10638 10637 10635 10633 10632 10630 10628 10626 10623 10620 10618 10615 10612 10610 10607 10604 10601 10598 10594 10590 10587 10583 10578 10574 10570 10565 10560 10555 10549 10543 10540 10537 10533 10530 10527 10523 10517 10512 10508 10503 10498 10494 10489 10484 10479 10474 10470 10465 10462 10460 10452 10443 10440 10435 10421 10410 10408 10404 10398 10391 10383 10376 10368 10359 10350 10344 10339 10331 10322 10313
10643 10642 10641 10641 10640 10640 10639 10639 10639 10638 10638 10638 10638 10638 10638 10637 10636 10635 10634 10632 10631 10629 10627 10625 10622 10620 10618 10615 10613 10610 10607 10605 10602 10599 10595 10592 10589 10585 10581 10577 10572 10568 10563 10559 10554 10549 10544 10537 10533 10530 10526 10522 10520 10516 10512 10508 10504 10500 10494 10489 10484 10479 10473 10466 10461 10457 10452 10450 10445 10433 10428 10428 10420 10407 10400 10394 10387 10381 10373 10366 10359 10349 10340 10333 10326 10318 10310 10300
10641 10640 10639 10639 10639 10638 10638 10637 10637 10637 10636 10636 10636 10635 10634 10634 10632 10631 10630 10628 10626 10625 10623 10620 10618 10616 10613 10611 10608 10605 10602 10599 10596 10593 10590 10586 10583 10579 10575 10571 10566 10561 10557 10552 10548 10544 10539 10533 10528 10524 10519 10516 10514 10511 10508 10504 10500 10495 10489 10484 10478 10473 10467 10460 10454 10449 10444 10440 10436 10426 10415 10412 10409 10401 10393 10384 10377 10371 10363 10355 10346 10336 10327 10320 10313 10305 10296 10286
10639 10638 10638 10637 10637 10636 10636 10635 10635 10635 10634 10633 10633 10632 10631 10630 10629 10627 10626 10624 10622 10620 10618 10616 10613 10611 10609 10606 10603 10600 10596 10593 10590 10586 10583 10580 10576 10573 10569 10564 10560 10555 10550 10546 10542 10538 10534 10528 10524 10519 10513 10511 10510 10506 10502 10499 10495 10490 10483 10478 10473 10468 10462 10455 10447 10441 10436 10430 10425 10418 10408 10399 10394 10390 10382 10372 10365 10359 10351 10342 10332 10322 10314 10307 10299 10290 10280 10270
10637 10636 10636 10635 10634 10634 10634 10633 10633 10632 10631 10631 10630 10629 10628 10626 10625 10624 10622 10620 10618 10616 10614 10611 10608 10606 10603 10600 10598 10594 10591 10588 10584 10580 10577 10573 10570 10567 10563 10558 10553 10549 10544 10541 10536 10533 10529 10524 10520 10515 10508 10504 10503 10500 10496 10492 10487 10482 10476 10470 10466 10461 10455 10447 10439 10432 10428 10421 10413 10407 10400 10391 10382 10376 10368 10359 10352 10345 10338 10328 10317 10306 10298 10292 10284 10274 10263 10253
10634 10634 10633 10633 10632 10632 10631 10631 10630 10629 10628 10627 10626 10625 10624 10623 10621 10620 10618 10616 10613 10611 10609 10606 10604 10601 10598 10595 10592 10589 10585 10582 10578 10574 10571 10568 10564 10560 10556 10552 10548 10543 10539 10535 10532 10528 10525 10520 10516 10512 10506 10499 10496 10494 10489 10484 10479 10474 10469 10463 10458 10454 10447 10439 10431 10423 10418 10412 10403 10394 10389 10383 10374 10364 10355 10345 10337 10330 10325 10316 10303 10291 10282 10273 10266 10258 10248 10238
10632 10631 10631 10630 10629 10629 10628 10628 10627 10626 10625 10624 10623 10622 10621 10619 10617 10615 10613 10611 10609 10606 10604 10601 10599 10596 10593 10590 10587 10583 10580 10576 10573 10569 10566 10563 10559 10555 10551 10547 10543 10538 10534 10531 10528 10524 10521 10517 10512 10509 10503 10496 10491 10488 10484 10479 10473 10466 10460 10455 10450 10445 10439 10431 10423 10414 10408 10403 10396 10387 10379 10373 10365 10357 10348 10337 10324 10312 10305 10296 10285 10276 10269 10260 10250 10242 10233 10223
10630 10629 10629 10628 10627 10626 10625 10625 10624 10623 10622 10621 10620 10618 10617 10615 10613 10611 10609 10607 10604 10602 10599 10596 10594 10591 10588 10585 10581 10578 10574 10571 10567 10564 10561 10557 10554 10549 10546 10542 10538 10534 10531 10527 10524 10521 10517 10513 10509 10505 10499 10493 10487 10482 10478 10474 10468 10461 10454 10448 10442 10437 10431 10423 10415 10406 10397 10389 10382 10376 10370 10363 10354 10346 10338 10330 10317 10302 10290 10278 10267 10259 10254 10246 10235 10224 10214 10204